This is the latest recevied weather packets stored in our database for station/object CA3DPI. If no packets are shown the sender has not sent any weather packets the latest 1 day(s).
| Time | Temp. | Humidity | Pressure | Rain* | Wind** | Luminosity | Snow |
|---|---|---|---|---|---|---|---|
| 1778051831 | 13.89° C | 52% | 1017.9 hPa | - | - | - | - |
| 1778051231 | 13.89° C | 51% | 1017.8 hPa | - | - | - | - |
| 1778050631 | 14.44° C | 50% | 1017.9 hPa | - | - | - | - |
| 1778050031 | 14.44° C | 50% | 1017.9 hPa | - | - | - | - |
| 1778048230 | 15° C | 50% | 1018.3 hPa | - | - | - | - |
| 1778047630 | 15° C | 52% | 1018.3 hPa | - | - | - | - |
| 1778047030 | 15° C | 50% | 1018.3 hPa | - | - | - | - |
| 1778046430 | 15.56° C | 50% | 1018.4 hPa | - | - | - | - |
| 1778044629 | 15.56° C | 49% | 1018.5 hPa | - | - | - | - |
| 1778044029 | 15.56° C | 49% | 1018.5 hPa | - | - | - | - |
| 1778043429 | 15.56° C | 49% | 1018.7 hPa | - | - | - | - |
| 1778042829 | 15.56° C | 51% | 1018.7 hPa | - | - | - | - |
| 1778041028 | 16.67° C | 46% | 1018.6 hPa | - | - | - | - |
| 1778040428 | 16.67° C | 47% | 1018.7 hPa | - | - | - | - |
| 1778039828 | 16.67° C | 47% | 1018.7 hPa | - | - | - | - |
| 1778039228 | 16.67° C | 47% | 1018.8 hPa | - | - | - | - |
| 1778038682 | 16.67° C | 48% | 1018.8 hPa | - | - | - | - |
| 1778038027 | 16.67° C | 48% | 1018.9 hPa | - | - | - | - |
| 1778037427 | 16.67° C | 48% | 1018.8 hPa | - | - | - | - |
| 1778036827 | 16.67° C | 47% | 1018.8 hPa | - | - | - | - |
| 1778036227 | 16.67° C | 48% | 1018.9 hPa | - | - | - | - |
| 1778034431 | 17.22° C | 49% | 1018.7 hPa | - | - | - | - |
| 1778033831 | 17.22° C | 48% | 1018.8 hPa | - | - | - | - |
| 1778033231 | 17.22° C | 48% | 1018.8 hPa | - | - | - | - |
| 1778032631 | 17.22° C | 46% | 1018.7 hPa | - | - | - | - |
* Rain since midnight (hover to see other rain measurements)
** Current wind speed in m/s (hover to see current wind gust speed)